Location: Angwan Shehu
(11.2514°N, 7.4613°E)
Time: 21:05:33
(UTC+00:00)

N. Korean satellite - Pass Details

Date: 08 March 2021
Orbit: 452 x 499 km, 97.2° (Epoch: 15 April)

Event Time Altitude Azimuth Distance (km) Brightness Sun altitude
Rises 04:52:34 0° 1° (N) 2,551 10.2 -12.8°
Reaches altitude 10° 04:54:41 10° 355° (N) 1,677 9.2 -12.3°
Maximum altitude 04:58:09 45° 282° (WNW) 678 6.8 -11.4°
Drops below altitude 10° 05:01:39 10° 208° (SSW) 1,694 9.1 -10.6°
Sets 05:03:47 0° 202° (SSW) 2,579 10.1 -10.0°
